Time,TemperatureF,DewpointF,PressureIn,WindDirection,WindDirectionDegrees,WindSpeedMPH,WindSpeedGustMPH,Humidity,HourlyPrecipIn,Conditions,Clouds,dailyrainin,SoftwareType,DateUTC
2013-05-29 07:35:00,47.7,45.8,30.13,ESE,120,0.0,0.0,93,0.00,,,0.00,Wunderground v.1.15,2013-05-29 11:35:00,
2013-05-29 07:40:00,47.9,45.7,30.13,ESE,120,0.0,0.0,92,0.00,,,0.00,Wunderground v.1.15,2013-05-29 11:40:00,
2013-05-29 07:45:00,48.0,45.8,30.13,ESE,120,0.0,0.0,92,0.00,,,0.00,Wunderground v.1.15,2013-05-29 11:45:00,
2013-05-29 07:50:00,48.2,46.0,30.13,ESE,120,0.0,0.0,92,0.00,,,0.00,Wunderground v.1.15,2013-05-29 11:50:00,
2013-05-29 07:55:00,48.4,45.9,30.13,ESE,120,0.0,0.0,91,0.00,,,0.00,Wunderground v.1.15,2013-05-29 11:55:00,
2013-05-29 08:00:00,48.3,45.2,30.13,ESE,120,0.0,0.0,89,0.00,,,0.00,Wunderground v.1.15,2013-05-29 12:00:00,
2013-05-29 08:05:00,48.3,44.9,30.14,ESE,120,0.0,1.0,88,0.00,,,0.00,Wunderground v.1.15,2013-05-29 12:05:00,
2013-05-29 08:10:00,48.2,44.5,30.14,SE,141,0.0,0.0,87,0.00,,,0.00,Wunderground v.1.15,2013-05-29 12:10:00,
2013-05-29 08:15:00,48.3,44.6,30.14,East,88,0.0,0.0,87,0.00,,,0.00,Wunderground v.1.15,2013-05-29 12:15:00,
2013-05-29 08:25:00,48.3,44.6,30.14,NNE,28,0.0,0.0,87,0.00,,,0.00,Wunderground v.1.15,2013-05-29 12:25:00,
2013-05-29 08:30:00,48.4,44.4,30.14,ESE,123,0.0,0.0,86,0.00,,,0.00,Wunderground v.1.15,2013-05-29 12:30:00,
2013-05-29 08:40:00,48.5,44.8,30.13,ENE,70,0.0,0.0,87,0.00,,,0.00,Wunderground v.1.15,2013-05-29 12:40:00,
2013-05-29 08:45:00,48.5,45.4,30.13,ENE,70,0.0,0.0,89,0.00,,,0.00,Wunderground v.1.15,2013-05-29 12:45:00,
2013-05-29 08:50:00,48.6,45.8,30.13,ENE,70,0.0,0.0,90,0.00,,,0.00,Wunderground v.1.15,2013-05-29 12:50:00,
2013-05-29 09:00:00,48.7,46.2,30.13,ENE,70,0.0,0.0,91,0.00,,,0.01,Wunderground v.1.15,2013-05-29 13:00:00,
2013-05-29 09:05:00,48.6,46.1,30.13,ENE,70,0.0,0.0,91,0.00,,,0.01,Wunderground v.1.15,2013-05-29 13:05:00,
2013-05-29 09:15:00,48.4,46.2,30.12,NE,51,0.0,0.0,92,0.00,,,0.01,Wunderground v.1.15,2013-05-29 13:15:00,
2013-05-29 09:20:00,48.4,46.5,30.12,NE,51,0.0,0.0,93,0.00,,,0.01,Wunderground v.1.15,2013-05-29 13:20:00,
2013-05-29 09:30:00,48.7,46.8,30.12,NE,51,0.0,0.0,93,0.00,,,0.02,Wunderground v.1.15,2013-05-29 13:30:00,
2013-05-29 09:35:00,48.8,46.9,30.11,NE,51,0.0,0.0,93,0.00,,,0.02,Wunderground v.1.15,2013-05-29 13:35:00,
2013-05-29 09:45:00,48.8,47.2,30.11,NE,51,0.0,0.0,94,0.00,,,0.03,Wunderground v.1.15,2013-05-29 13:45:00,
2013-05-29 09:50:00,48.9,47.2,30.11,ENE,63,0.0,0.0,94,0.00,,,0.03,Wunderground v.1.15,2013-05-29 13:50:00,
2013-05-29 10:00:00,48.9,47.2,30.11,ENE,63,0.0,0.0,94,0.05,,,0.04,Wunderground v.1.15,2013-05-29 14:00:00,
2013-05-29 10:05:00,49.0,47.3,30.11,ENE,64,0.0,0.0,94,0.05,,,0.04,Wunderground v.1.15,2013-05-29 14:05:00,
2013-05-29 10:10:00,49.0,47.3,30.11,ENE,64,0.0,0.0,94,0.04,,,0.05,Wunderground v.1.15,2013-05-29 14:10:00,
2013-05-29 10:20:00,49.1,47.7,30.10,ENE,63,0.0,0.0,95,0.04,,,0.05,Wunderground v.1.15,2013-05-29 14:20:00,
2013-05-29 10:25:00,49.2,47.8,30.10,South,170,0.0,0.0,95,0.04,,,0.05,Wunderground v.1.15,2013-05-29 14:25:00,
2013-05-29 10:35:00,49.4,48.0,30.10,South,170,0.0,0.0,95,0.00,,,0.05,Wunderground v.1.15,2013-05-29 14:35:00,
2013-05-29 10:40:00,49.4,48.0,30.10,SSE,153,0.0,0.0,95,0.00,,,0.05,Wunderground v.1.15,2013-05-29 14:40:00,
2013-05-29 10:45:00,49.4,48.0,30.10,SSE,154,0.0,0.0,95,0.00,,,0.05,Wunderground v.1.15,2013-05-29 14:45:00,
2013-05-29 10:55:00,49.5,48.1,30.09,SSE,153,0.0,0.0,95,0.00,,,0.05,Wunderground v.1.15,2013-05-29 14:55:00,
2013-05-29 11:00:00,49.6,48.2,30.09,SSE,153,0.0,0.0,95,0.00,,,0.06,Wunderground v.1.15,2013-05-29 15:00:00,
2013-05-29 11:10:00,49.7,48.3,30.08,SSE,154,0.0,0.0,95,0.07,,,0.07,Wunderground v.1.15,2013-05-29 15:10:00,
2013-05-29 11:15:00,49.8,48.4,30.08,SSE,153,0.0,0.0,95,0.07,,,0.07,Wunderground v.1.15,2013-05-29 15:15:00,
2013-05-29 11:25:00,49.9,48.5,30.08,SSE,153,0.0,0.0,95,0.05,,,0.08,Wunderground v.1.15,2013-05-29 15:25:00,
2013-05-29 11:30:00,50.0,48.9,30.08,SSE,153,0.0,0.0,96,0.05,,,0.09,Wunderground v.1.15,2013-05-29 15:30:00,
2013-05-29 11:40:00,50.1,49.0,30.08,SSE,153,0.0,0.0,96,0.10,,,0.10,Wunderground v.1.15,2013-05-29 15:40:00,
2013-05-29 11:45:00,50.3,49.2,30.08,SSE,153,0.0,0.0,96,0.10,,,0.11,Wunderground v.1.15,2013-05-29 15:45:00,
2013-05-29 11:55:00,50.5,49.4,30.08,SSE,153,0.0,0.0,96,0.08,,,0.13,Wunderground v.1.15,2013-05-29 15:55:00,
2013-05-29 12:00:00,50.6,49.5,30.08,SSE,153,0.0,0.0,96,0.08,,,0.13,Wunderground v.1.15,2013-05-29 16:00:00,
2013-05-29 12:05:00,50.8,49.7,30.08,SSE,153,0.0,0.0,96,0.14,,,0.15,Wunderground v.1.15,2013-05-29 16:05:00,
2013-05-29 12:15:00,50.9,49.8,30.08,SSE,153,0.0,0.0,96,0.06,,,0.15,Wunderground v.1.15,2013-05-29 16:15:00,
2013-05-29 12:20:00,51.0,49.9,30.07,SSE,154,0.0,0.0,96,0.06,,,0.16,Wunderground v.1.15,2013-05-29 16:20:00,
2013-05-29 12:30:00,51.3,50.2,30.07,SSE,153,0.0,0.0,96,0.04,,,0.16,Wunderground v.1.15,2013-05-29 16:30:00,
2013-05-29 12:35:00,51.6,50.5,30.06,SSE,154,0.0,0.0,96,0.00,,,0.17,Wunderground v.1.15,2013-05-29 16:35:00,
2013-05-29 12:45:00,51.9,50.8,30.06,SSE,153,0.0,0.0,96,0.00,,,0.17,Wunderground v.1.15,2013-05-29 16:45:00,
2013-05-29 12:50:00,52.1,51.0,30.06,SSE,153,0.0,0.0,96,0.00,,,0.17,Wunderground v.1.15,2013-05-29 16:50:00,
2013-05-29 13:00:00,52.3,51.2,30.05,SSE,163,0.0,0.0,96,0.00,,,0.17,Wunderground v.1.15,2013-05-29 17:00:00,
2013-05-29 13:10:00,52.6,51.2,30.06,SSW,197,0.0,0.0,95,0.00,,,0.17,Wunderground v.1.15,2013-05-29 17:10:00,
2013-05-29 13:15:00,52.8,51.4,30.06,SSW,194,0.0,0.0,95,0.00,,,0.17,Wunderground v.1.15,2013-05-29 17:15:00,
2013-05-29 13:20:00,52.9,51.5,30.07,SSW,194,0.0,0.0,95,0.00,,,0.17,Wunderground v.1.15,2013-05-29 17:20:00,
2013-05-29 13:30:00,53.1,51.7,30.06,SSW,194,0.0,0.0,95,0.00,,,0.17,Wunderground v.1.15,2013-05-29 17:30:00,
2013-05-29 13:35:00,53.4,52.0,30.06,South,176,0.0,0.0,95,0.00,,,0.17,Wunderground v.1.15,2013-05-29 17:35:00,
2013-05-29 13:45:00,53.6,51.9,30.06,ESE,107,0.0,0.0,94,0.00,,,0.18,Wunderground v.1.15,2013-05-29 17:45:00,
2013-05-29 13:50:00,53.8,52.4,30.06,ESE,107,0.0,0.0,95,0.00,,,0.18,Wunderground v.1.15,2013-05-29 17:50:00,
2013-05-29 14:00:00,53.9,52.2,30.06,ESE,108,0.0,0.0,94,0.00,,,0.18,Wunderground v.1.15,2013-05-29 18:00:00,
2013-05-29 14:10:00,53.9,52.2,30.06,SE,131,0.0,0.0,94,0.00,,,0.18,Wunderground v.1.15,2013-05-29 18:10:00,
2013-05-29 14:15:00,53.8,52.1,30.06,SE,131,0.0,0.0,94,0.00,,,0.18,Wunderground v.1.15,2013-05-29 18:15:00,
2013-05-29 14:25:00,53.9,52.5,30.05,SE,131,0.0,0.0,95,0.00,,,0.18,Wunderground v.1.15,2013-05-29 18:25:00,
2013-05-29 14:30:00,54.0,52.6,30.05,SE,135,0.0,0.0,95,0.00,,,0.18,Wunderground v.1.15,2013-05-29 18:30:00,
2013-05-29 14:35:00,54.1,52.4,30.04,SE,142,0.0,0.0,94,0.00,,,0.18,Wunderground v.1.15,2013-05-29 18:35:00,
2013-05-29 14:45:00,54.1,52.4,30.04,SE,131,0.0,0.0,94,0.00,,,0.18,Wunderground v.1.15,2013-05-29 18:45:00,
2013-05-29 14:50:00,54.2,52.5,30.04,SE,129,0.0,0.0,94,0.00,,,0.18,Wunderground v.1.15,2013-05-29 18:50:00,
2013-05-29 15:00:00,54.2,52.5,30.04,SE,129,0.0,0.0,94,0.00,,,0.18,Wunderground v.1.15,2013-05-29 19:00:00,
2013-05-29 15:05:00,54.3,52.3,30.04,SE,141,0.0,0.0,93,0.00,,,0.18,Wunderground v.1.15,2013-05-29 19:05:00,
2013-05-29 15:15:00,54.6,52.9,30.04,SE,136,0.0,0.0,94,0.00,,,0.18,Wunderground v.1.15,2013-05-29 19:15:00,
2013-05-29 15:20:00,54.4,52.4,30.04,SE,133,0.0,0.0,93,0.00,,,0.18,Wunderground v.1.15,2013-05-29 19:20:00,
2013-05-29 15:25:00,54.3,52.3,30.04,SE,125,0.0,0.0,93,0.00,,,0.18,Wunderground v.1.15,2013-05-29 19:25:00,
2013-05-29 15:35:00,54.2,52.2,30.04,SE,125,0.0,0.0,93,0.00,,,0.18,Wunderground v.1.15,2013-05-29 19:35:00,
2013-05-29 15:45:00,54.3,52.6,30.04,SE,125,0.0,0.0,94,0.00,,,0.18,Wunderground v.1.15,2013-05-29 19:45:00,
2013-05-29 15:50:00,54.2,52.5,30.04,SE,125,0.0,0.0,94,0.00,,,0.18,Wunderground v.1.15,2013-05-29 19:50:00,
2013-05-29 15:55:00,54.2,52.5,30.03,SE,125,0.0,0.0,94,0.00,,,0.18,Wunderground v.1.15,2013-05-29 19:55:00,
2013-05-29 16:05:00,54.2,52.8,30.03,SE,125,0.0,0.0,95,0.00,,,0.18,Wunderground v.1.15,2013-05-29 20:05:00,
2013-05-29 16:15:00,54.2,52.8,30.03,SE,125,0.0,0.0,95,0.00,,,0.18,Wunderground v.1.15,2013-05-29 20:15:00,
2013-05-29 16:20:00,54.2,52.8,30.03,SE,125,0.0,0.0,95,0.00,,,0.18,Wunderground v.1.15,2013-05-29 20:20:00,
2013-05-29 16:30:00,54.3,52.9,30.02,SE,125,0.0,0.0,95,0.00,,,0.18,Wunderground v.1.15,2013-05-29 20:30:00,
2013-05-29 16:35:00,54.5,53.1,30.02,SE,125,0.0,0.0,95,0.00,,,0.18,Wunderground v.1.15,2013-05-29 20:35:00,
2013-05-29 16:45:00,54.5,53.1,30.02,SE,125,0.0,0.0,95,0.00,,,0.18,Wunderground v.1.15,2013-05-29 20:45:00,
2013-05-29 16:50:00,54.6,53.2,30.01,SE,125,0.0,0.0,95,0.00,,,0.18,Wunderground v.1.15,2013-05-29 20:50:00,
2013-05-29 17:00:00,54.7,53.0,30.01,SE,125,0.0,0.0,94,0.00,,,0.18,Wunderground v.1.15,2013-05-29 21:00:00,
2013-05-29 17:05:00,54.8,53.4,30.02,SE,125,0.0,0.0,95,0.00,,,0.18,Wunderground v.1.15,2013-05-29 21:05:00,
2013-05-29 17:10:00,54.8,53.4,30.01,SE,125,0.0,0.0,95,0.00,,,0.18,Wunderground v.1.15,2013-05-29 21:10:00,
2013-05-29 17:20:00,54.7,53.0,30.02,SE,125,0.0,0.0,94,0.00,,,0.18,Wunderground v.1.15,2013-05-29 21:20:00,
2013-05-29 17:30:00,55.0,53.6,30.02,SE,125,0.0,0.0,95,0.00,,,0.18,Wunderground v.1.15,2013-05-29 21:30:00,
2013-05-29 17:35:00,55.0,53.3,30.02,SE,126,0.0,0.0,94,0.00,,,0.18,Wunderground v.1.15,2013-05-29 21:35:00,
2013-05-29 17:45:00,55.0,53.3,30.01,SE,125,0.0,0.0,94,0.00,,,0.18,Wunderground v.1.15,2013-05-29 21:45:00,
2013-05-29 17:50:00,54.9,53.2,30.01,SE,125,0.0,0.0,94,0.00,,,0.18,Wunderground v.1.15,2013-05-29 21:50:00,
2013-05-29 17:55:00,54.9,53.2,30.01,ESE,118,0.0,0.0,94,0.00,,,0.18,Wunderground v.1.15,2013-05-29 21:55:00,
2013-05-29 18:05:00,54.9,53.5,30.00,ESE,118,0.0,0.0,95,0.00,,,0.18,Wunderground v.1.15,2013-05-29 22:05:00,
2013-05-29 18:10:00,54.9,53.5,30.00,ESE,118,0.0,0.0,95,0.00,,,0.18,Wunderground v.1.15,2013-05-29 22:10:00,
2013-05-29 18:20:00,54.8,53.4,30.01,ESE,118,0.0,0.0,95,0.00,,,0.18,Wunderground v.1.15,2013-05-29 22:20:00,
2013-05-29 18:25:00,54.7,53.3,30.00,ESE,118,0.0,0.0,95,0.00,,,0.18,Wunderground v.1.15,2013-05-29 22:25:00,
2013-05-29 18:35:00,54.6,53.2,30.00,ESE,118,0.0,0.0,95,0.00,,,0.18,Wunderground v.1.15,2013-05-29 22:35:00,
2013-05-29 18:40:00,54.6,53.2,30.00,SE,125,0.0,0.0,95,0.00,,,0.18,Wunderground v.1.15,2013-05-29 22:40:00,
2013-05-29 18:50:00,54.7,53.3,29.99,SE,125,0.0,0.0,95,0.00,,,0.18,Wunderground v.1.15,2013-05-29 22:50:00,
2013-05-29 18:55:00,54.7,53.3,29.99,SE,125,0.0,0.0,95,0.00,,,0.18,Wunderground v.1.15,2013-05-29 22:55:00,
2013-05-29 19:05:00,54.7,53.6,29.99,SE,125,0.0,0.0,96,0.00,,,0.18,Wunderground v.1.15,2013-05-29 23:05:00,
2013-05-29 19:10:00,54.7,53.3,29.99,SE,125,0.0,0.0,95,0.00,,,0.18,Wunderground v.1.15,2013-05-29 23:10:00,
2013-05-29 19:20:00,54.6,53.5,29.99,SE,125,0.0,0.0,96,0.00,,,0.18,Wunderground v.1.15,2013-05-29 23:20:00,
2013-05-29 19:25:00,54.5,53.1,29.99,SE,125,0.0,0.0,95,0.00,,,0.18,Wunderground v.1.15,2013-05-29 23:25:00,
2013-05-29 19:35:00,54.4,53.3,29.98,ESE,122,0.0,0.0,96,0.00,,,0.18,Wunderground v.1.15,2013-05-29 23:35:00,
2013-05-29 19:40:00,54.4,53.3,29.99,ESE,122,0.0,0.0,96,0.00,,,0.18,Wunderground v.1.15,2013-05-29 23:40:00,
2013-05-29 19:45:00,54.4,53.3,29.99,ESE,122,0.0,0.0,96,0.00,,,0.18,Wunderground v.1.15,2013-05-29 23:45:00,
2013-05-29 19:55:00,54.4,53.3,29.99,ESE,123,0.0,0.0,96,0.00,,,0.18,Wunderground v.1.15,2013-05-29 23:55:00,
2013-05-29 20:00:00,54.4,53.3,29.99,ESE,123,0.0,0.0,96,0.00,,,0.18,Wunderground v.1.15,2013-05-30 00:00:00,
2013-05-29 20:10:00,54.3,53.2,29.99,ESE,122,0.0,0.0,96,0.00,,,0.18,Wunderground v.1.15,2013-05-30 00:10:00,
2013-05-29 20:15:00,54.3,53.2,29.99,ESE,122,0.0,0.0,96,0.00,,,0.18,Wunderground v.1.15,2013-05-30 00:15:00,
2013-05-29 20:25:00,54.2,53.1,29.99,ESE,122,0.0,0.0,96,0.00,,,0.18,Wunderground v.1.15,2013-05-30 00:25:00,
2013-05-29 20:30:00,54.2,53.1,29.98,ESE,123,0.0,0.0,96,0.00,,,0.18,Wunderground v.1.15,2013-05-30 00:30:00,
2013-05-29 20:40:00,54.1,53.0,29.98,ESE,123,0.0,0.0,96,0.00,,,0.18,Wunderground v.1.15,2013-05-30 00:40:00,
2013-05-29 20:45:00,54.1,53.0,29.98,ESE,122,0.0,0.0,96,0.00,,,0.18,Wunderground v.1.15,2013-05-30 00:45:00,
2013-05-29 20:55:00,54.0,52.9,29.98,ESE,123,0.0,0.0,96,0.00,,,0.18,Wunderground v.1.15,2013-05-30 00:55:00,
2013-05-29 21:00:00,54.0,52.9,29.97,ESE,123,0.0,0.0,96,0.00,,,0.18,Wunderground v.1.15,2013-05-30 01:00:00,
2013-05-29 21:05:00,53.9,52.8,29.97,ESE,123,0.0,0.0,96,0.00,,,0.18,Wunderground v.1.15,2013-05-30 01:05:00,
2013-05-29 21:15:00,53.9,52.8,29.98,ESE,123,0.0,0.0,96,0.00,,,0.18,Wunderground v.1.15,2013-05-30 01:15:00,
2013-05-29 21:20:00,53.8,52.7,29.97,ESE,123,0.0,0.0,96,0.00,,,0.18,Wunderground v.1.15,2013-05-30 01:20:00,
2013-05-29 21:30:00,53.8,53.0,29.97,ESE,122,0.0,0.0,97,0.00,,,0.18,Wunderground v.1.15,2013-05-30 01:30:00,
2013-05-29 21:35:00,53.8,53.0,29.97,ESE,122,0.0,0.0,97,0.00,,,0.18,Wunderground v.1.15,2013-05-30 01:35:00,
2013-05-29 21:40:00,53.8,53.0,29.97,ESE,123,0.0,0.0,97,0.00,,,0.18,Wunderground v.1.15,2013-05-30 01:40:00,
2013-05-29 21:50:00,53.8,53.0,29.97,ESE,122,0.0,0.0,97,0.00,,,0.18,Wunderground v.1.15,2013-05-30 01:50:00,
2013-05-29 21:55:00,53.8,53.0,29.97,ESE,123,0.0,0.0,97,0.00,,,0.18,Wunderground v.1.15,2013-05-30 01:55:00,
2013-05-29 22:05:00,53.8,53.0,29.97,ESE,122,0.0,0.0,97,0.00,,,0.18,Wunderground v.1.15,2013-05-30 02:05:00,
2013-05-29 22:15:00,53.8,53.0,29.96,ESE,122,0.0,0.0,97,0.00,,,0.18,Wunderground v.1.15,2013-05-30 02:15:00,
2013-05-29 22:20:00,53.8,53.0,29.96,ESE,122,0.0,0.0,97,0.00,,,0.18,Wunderground v.1.15,2013-05-30 02:20:00,
2013-05-29 22:25:00,53.8,53.0,29.96,ESE,123,0.0,0.0,97,0.00,,,0.18,Wunderground v.1.15,2013-05-30 02:25:00,
2013-05-29 22:35:00,53.8,53.0,29.97,ESE,122,0.0,0.0,97,0.00,,,0.18,Wunderground v.1.15,2013-05-30 02:35:00,
2013-05-29 22:40:00,53.7,52.9,29.97,ESE,123,0.0,0.0,97,0.00,,,0.18,Wunderground v.1.15,2013-05-30 02:40:00,
2013-05-29 22:50:00,53.6,52.8,29.97,North,350,0.0,0.0,97,0.00,,,0.18,Wunderground v.1.15,2013-05-30 02:50:00,
2013-05-29 22:55:00,53.6,52.8,29.97,North,352,0.0,0.0,97,0.00,,,0.18,Wunderground v.1.15,2013-05-30 02:55:00,
2013-05-29 23:00:00,53.6,52.8,29.97,North,351,0.0,0.0,97,0.00,,,0.18,Wunderground v.1.15,2013-05-30 03:00:00,